• In Netherlands
  • List of Countries
  • For 7 days
  • Water Temperature
  • Satellite Maps
  • Weather Map
  • Weather Widgets
  • user-avatar
    Login

    Hourly Weather Kandi

    Today, 20 February, Monday

    Time Temperature Precipitation Wind Pressure Humidity
    00:00 +20°C° 0 mm 2 mps 738 mmHg 10%
    01:00 +20°C° 0 mm 2 mps 738 mmHg 11%
    02:00 +19°C° 0 mm 2 mps 738 mmHg 12%
    03:00 +18°C° 0 mm 2 mps 738 mmHg 13%
    04:00 +18°C° 0 mm 2 mps 738 mmHg 14%
    05:00 +17°C° 0 mm 2 mps 738 mmHg 15%
    06:00 +16°C° 0 mm 2 mps 738 mmHg 17%
    07:00 +20°C° 0 mm 2 mps 739 mmHg 15%
    08:00 +24°C° 0 mm 2 mps 739 mmHg 12%
    09:00 +28°C° 0 mm 3 mps 740 mmHg 10%
    10:00 +31°C° 0 mm 2 mps 739 mmHg 8%
    11:00 +35°C° 0 mm 2 mps 739 mmHg 7%
    12:00 +38°C° 0 mm 2 mps 738 mmHg 6%
    13:00 +39°C° 0 mm 2 mps 738 mmHg 5%
    14:00 +40°C° 0 mm 1 mps 737 mmHg 5%
    15:00 +41°C° 0 mm 1 mps 736 mmHg 5%
    16:00 +36°C° 0 mm 1 mps 736 mmHg 6%
    17:00 +32°C° 0 mm 1 mps 736 mmHg 8%
    18:00 +29°C° 0 mm 2 mps 735 mmHg 9%
    19:00 +28°C° 0 mm 2 mps 736 mmHg 9%
    20:00 +27°C° 0 mm 2 mps 736 mmHg 9%
    21:00 +26°C° 0 mm 2 mps 737 mmHg 9%
    22:00 +25°C° 0 mm 2 mps 737 mmHg 10%
    23:00 +24°C° 0 mm 2 mps 737 mmHg 11%

    Tomorrow, 21 February, Tuesday

    Time Temperature Precipitation Wind Pressure Humidity
    00:00 +23°C° 0 mm 2 mps 737 mmHg 11%
    01:00 +21°C° 0 mm 2 mps 737 mmHg 12%
    02:00 +20°C° 0 mm 2 mps 736 mmHg 13%
    03:00 +20°C° 0 mm 1 mps 736 mmHg 14%
    04:00 +20°C° 0 mm 1 mps 736 mmHg 14%
    05:00 +19°C° 0 mm 2 mps 737 mmHg 14%
    06:00 +19°C° 0 mm 2 mps 737 mmHg 15%
    07:00 +23°C° 0 mm 2 mps 737 mmHg 13%
    08:00 +27°C° 0 mm 2 mps 738 mmHg 11%
    09:00 +31°C° 0 mm 3 mps 739 mmHg 9%
    10:00 +34°C° 0 mm 3 mps 738 mmHg 8%
    11:00 +37°C° 0 mm 3 mps 738 mmHg 7%
    12:00 +40°C° 0 mm 3 mps 737 mmHg 6%
    13:00 +41°C° 0 mm 2 mps 736 mmHg 6%
    14:00 +42°C° 0 mm 2 mps 736 mmHg 6%
    15:00 +43°C° 0 mm 1 mps 735 mmHg 6%
    16:00 +37°C° 0 mm 1 mps 735 mmHg 8%
    17:00 +33°C° 0 mm 1 mps 734 mmHg 11%
    18:00 +29°C° 0 mm 1 mps 734 mmHg 13%
    19:00 +29°C° 0 mm 2 mps 735 mmHg 14%
    20:00 +28°C° 0 mm 2 mps 736 mmHg 14%
    21:00 +27°C° 0 mm 2 mps 736 mmHg 14%
    22:00 +27°C° 0 mm 2 mps 736 mmHg 14%
    23:00 +26°C° 0 mm 2 mps 736 mmHg 15%

    Day after tomorrow, 22 February, Wednesday

    Time Temperature Precipitation Wind Pressure Humidity
    00:00 +25°C° 0 mm 2 mps 736 mmHg 15%
    01:00 +24°C° 0 mm 2 mps 736 mmHg 15%
    02:00 +24°C° 0 mm 2 mps 736 mmHg 15%
    03:00 +23°C° 0 mm 2 mps 735 mmHg 15%
    04:00 +21°C° 0 mm 2 mps 736 mmHg 15%
    05:00 +21°C° 0 mm 2 mps 736 mmHg 15%
    06:00 +20°C° 0 mm 2 mps 736 mmHg 15%
    07:00 +25°C° 0 mm 2 mps 737 mmHg 13%
    08:00 +28°C° 0 mm 3 mps 738 mmHg 11%
    09:00 +33°C° 0 mm 3 mps 738 mmHg 8%
    10:00 +35°C° 0 mm 3 mps 738 mmHg 7%
    11:00 +38°C° 0 mm 4 mps 737 mmHg 6%
    12:00 +42°C° 0 mm 4 mps 737 mmHg 5%
    13:00 +43°C° 0 mm 3 mps 736 mmHg 5%
    14:00 +43°C° 0 mm 3 mps 735 mmHg 5%
    15:00 +43°C° 0 mm 2 mps 734 mmHg 5%
    16:00 +39°C° 0 mm 2 mps 734 mmHg 7%
    17:00 +36°C° 0 mm 2 mps 734 mmHg 8%
    18:00 +31°C° 0 mm 2 mps 734 mmHg 10%
    19:00 +30°C° 0 mm 2 mps 734 mmHg 11%
    20:00 +29°C° 0 mm 2 mps 735 mmHg 11%
    21:00 +27°C° 0 mm 2 mps 736 mmHg 12%
    22:00 +27°C° 0 mm 2 mps 735 mmHg 12%
    23:00 +26°C° 0 mm 2 mps 735 mmHg 13%

    23 February, Thursday

    Time Temperature Precipitation Wind Pressure Humidity
    00:00 +26°C° 0 mm 2 mps 735 mmHg 13%
    01:00 +25°C° 0 mm 2 mps 735 mmHg 13%
    02:00 +24°C° 0 mm 2 mps 735 mmHg 14%
    03:00 +24°C° 0 mm 2 mps 735 mmHg 14%
    04:00 +23°C° 0 mm 2 mps 735 mmHg 15%
    05:00 +23°C° 0 mm 2 mps 736 mmHg 15%
    06:00 +21°C° 0 mm 2 mps 736 mmHg 16%
    07:00 +26°C° 0 mm 2 mps 737 mmHg 14%
    08:00 +29°C° 0 mm 3 mps 737 mmHg 12%
    09:00 +33°C° 0 mm 3 mps 738 mmHg 10%
    10:00 +36°C° 0 mm 3 mps 738 mmHg 9%
    11:00 +38°C° 0 mm 3 mps 737 mmHg 8%
    12:00 +42°C° 0 mm 4 mps 736 mmHg 7%
    13:00 +43°C° 0 mm 3 mps 735 mmHg 7%
    14:00 +43°C° 0 mm 3 mps 734 mmHg 6%
    15:00 +43°C° 0 mm 2 mps 733 mmHg 6%
    16:00 +40°C° 0 mm 2 mps 733 mmHg 7%
    17:00 +36°C° 0 mm 2 mps 733 mmHg 9%
    18:00 +32°C° 0 mm 2 mps 733 mmHg 10%
    19:00 +31°C° 0 mm 2 mps 734 mmHg 11%
    20:00 +29°C° 0 mm 2 mps 735 mmHg 12%
    21:00 +28°C° 0 mm 2 mps 735 mmHg 12%
    22:00 +27°C° 0 mm 2 mps 735 mmHg 13%
    23:00 +26°C° 0 mm 2 mps 735 mmHg 14%

    24 February, Friday

    Time Temperature Precipitation Wind Pressure Humidity
    00:00 +26°C° 0 mm 2 mps 735 mmHg 14%
    01:00 +24°C° 0 mm 1 mps 735 mmHg 17%
    02:00 +23°C° 0 mm 1 mps 735 mmHg 20%
    03:00 +21°C° 0 mm 1 mps 734 mmHg 23%
    04:00 +21°C° 0 mm 1 mps 735 mmHg 26%
    05:00 +21°C° 0 mm 1 mps 735 mmHg 30%
    06:00 +20°C° 0 mm 1 mps 736 mmHg 33%
    07:00 +25°C° 0 mm 1 mps 737 mmHg 29%
    08:00 +29°C° 0 mm 1 mps 737 mmHg 24%
    09:00 +34°C° 0 mm 1 mps 738 mmHg 19%
    10:00 +37°C° 0 mm 1 mps 737 mmHg 17%
    11:00 +40°C° 0 mm 2 mps 736 mmHg 14%
    12:00 +43°C° 0 mm 2 mps 736 mmHg 11%
    13:00 +43°C° 0 mm 2 mps 735 mmHg 10%
    14:00 +43°C° 0 mm 2 mps 734 mmHg 9%
    15:00 +43°C° 0 mm 2 mps 733 mmHg 9%
    16:00 +40°C° 0 mm 2 mps 733 mmHg 10%
    17:00 +37°C° 0 mm 2 mps 733 mmHg 11%
    18:00 +34°C° 0 mm 2 mps 734 mmHg 13%
    19:00 +32°C° 0 mm 2 mps 734 mmHg 13%
    20:00 +30°C° 0 mm 2 mps 735 mmHg 13%
    21:00 +29°C° 0 mm 2 mps 735 mmHg 13%
    22:00 +28°C° 0 mm 2 mps 735 mmHg 13%
    23:00 +27°C° 0 mm 2 mps 735 mmHg 14%

    25 February, Saturday

    Time Temperature Precipitation Wind Pressure Humidity
    00:00 +26°C° 0 mm 2 mps 735 mmHg 14%
    01:00 +26°C° 0 mm 2 mps 735 mmHg 15%
    02:00 +25°C° 0 mm 2 mps 735 mmHg 17%
    03:00 +25°C° 0 mm 2 mps 735 mmHg 18%
    04:00 +23°C° 0 mm 2 mps 735 mmHg 27%
    05:00 +22°C° 0 mm 1 mps 736 mmHg 36%
    06:00 +21°C° 0 mm 1 mps 736 mmHg 44%
    07:00 +25°C° 0 mm 1 mps 737 mmHg 40%
    08:00 +29°C° 0 mm 2 mps 737 mmHg 36%
    09:00 +34°C° 0 mm 2 mps 738 mmHg 32%
    10:00 +37°C° 0 mm 2 mps 737 mmHg 26%
    11:00 +39°C° 0 mm 2 mps 737 mmHg 20%
    12:00 +42°C° 0 mm 2 mps 736 mmHg 14%
    13:00 +43°C° 0 mm 3 mps 735 mmHg 12%
    14:00 +44°C° 0 mm 3 mps 734 mmHg 10%
    15:00 +45°C° 0 mm 3 mps 733 mmHg 8%
    16:00 +42°C° 0 mm 3 mps 733 mmHg 9%
    17:00 +38°C° 0 mm 2 mps 734 mmHg 10%
    18:00 +35°C° 0 mm 2 mps 734 mmHg 10%
    19:00 +32°C° 0 mm 2 mps 734 mmHg 11%
    20:00 +30°C° 0 mm 2 mps 735 mmHg 12%
    21:00 +28°C° 0 mm 2 mps 735 mmHg 13%
    22:00 +27°C° 0 mm 2 mps 735 mmHg 13%
    23:00 +27°C° 0 mm 2 mps 735 mmHg 13%
    Show more